Location: Rowland
(34.5359°N, 79.2929°W)
Time: 20:47:29
(UTC+00:00)

A-11 Canister half - Pass Details

Date: 06 October 2022
Orbit: 1516 x 1684 km, 47.2° (Epoch: 28 November)

Event Time Altitude Azimuth Distance (km) Brightness Sun altitude
Exits shadow 08:56:18 33° 197° (SSW) 2,319 9.6 -29.3°
Drops below altitude 10° 09:02:06 10° 164° (SSE) 3,678 11.0 -28.1°
Sets 09:05:25 0° 157° (SSE) 4,670 11.7 -27.5°
